Location: Little Baddow
(51.7333°N, 0.5667°E)
Time: 00:11:58
(UTC+00:00)

Timation 2 Rocket - Pass Details

Date: 08 November 2025
Orbit: 903 x 1075 km, 70.0° (Epoch: 04 December)

Event Time Altitude Azimuth Distance (km) Brightness Sun altitude
Exits shadow 04:14:49 26° 332° (NNW) 1,914 5.3 -26.3°
Maximum altitude 04:18:50 80° 56° (NE) 1,045 4.1 -25.7°
Drops below altitude 10° 04:25:17 10° 144° (SE) 2,747 6.7 -24.7°
Sets 04:27:47 0° 146° (SE) 3,666 7.4 -24.3°
